Wind_Speed
46 46 46 48 48 48 50 50 50 49 47 46 46 45 44 43 41 39 38 38 37 36 35 33 31 30 29 29 30 30 30 31 31 31 31 31 32 31 29 26 24 23
50 48 47 48 49 50 51 51 52 51 50 49 48 48 48 47 46 44 43 41 41 40 39 38 37 36 35 35 35 35 35 35 35 34 34 34 34 33 32 30 28 27
51 49 48 47 47 48 49 49 51 51 51 51 52 52 52 51 51 50 49 47 45 43 42 42 41 41 41 41 41 40 40 39 39 38 39 38 38 37 36 35 34 33
50 50 50 49 49 50 51 51 52 52 53 53 54 53 54 55 55 54 54 52 50 47 46 45 44 44 44 44 44 44 44 43 43 43 43 43 42 41 40 40 40 39
53 52 52 52 52 53 54 54 54 53 54 54 54 55 55 56 57 57 56 55 53 50 48 47 47 47 47 47 47 47 46 46 46 45 45 45 44 44 43 43 43 42
56 55 54 55 55 55 55 55 55 54 54 55 56 56 56 57 57 57 57 56 54 52 51 51 51 51 51 50 49 48 48 48 48 48 47 47 47 47 47 46 46 46
58 58 57 57 58 58 58 58 57 55 55 56 56 56 56 57 58 57 57 56 55 54 53 53 52 51 51 50 50 49 49 50 50 49 49 49 49 49 49 49 49 49
59 61 62 62 62 62 62 63 63 62 60 59 58 58 58 58 59 58 58 59 59 58 58 56 55 53 52 51 51 51 52 52 52 52 52 52 52 53 53 52 52 52
59 61 63 64 64 64 65 66 67 66 65 63 63 63 63 64 64 64 63 62 62 62 62 62 61 59 57 56 56 56 57 57 56 56 56 56 56 56 56 55 54 53
62 62 63 64 66 67 66 66 66 66 66 67 66 66 66 67 68 69 68 67 67 67 67 66 65 64 63 62 62 62 62 61 60 59 58 58 58 57 55 54 52 51
66 65 64 64 65 66 66 66 66 67 67 67 67 66 66 67 67 68 68 69 69 70 69 68 66 65 65 65 64 64 63 61 60 58 58 57 56 54 52 51 49 48
70 68 65 64 63 62 63 65 65 65 65 66 66 66 66 66 66 66 66 67 67 67 67 66 64 63 63 63 62 62 61 60 58 57 56 54 53 51 49 48 47 46
73 71 69 68 67 66 67 67 66 66 67 67 67 66 65 64 64 63 63 63 62 62 62 62 61 60 59 59 59 59 59 58 57 55 54 52 51 49 48 47 46 45
76 74 72 71 70 71 71 70 69 69 69 68 67 65 64 63 62 61 61 60 59 59 59 59 58 58 57 57 56 56 56 56 55 54 53 52 51 50 50 48 45 44
77 76 75 74 73 74 73 73 72 71 69 68 67 65 63 62 61 60 59 58 57 55 55 55 55 55 55 55 54 55 55 55 54 54 54 53 52 52 51 49 47 46
78 77 76 76 76 76 75 74 74 72 70 68 67 65 64 63 61 60 58 57 56 54 53 52 52 52 52 52 52 53 55 56 56 55 55 54 53 51 51 50 51 52
80 79 79 78 78 78 77 75 74 73 71 69 68 67 66 64 63 62 60 59 58 57 56 56 55 55 54 54 54 55 56 57 57 57 56 55 54 53 51 50 52 55
82 81 80 79 79 78 78 76 75 73 71 70 69 68 68 67 66 65 64 64 63 62 61 60 60 59 59 59 59 59 60 60 59 59 58 57 56 55 54 53 53 55
83 82 80 79 78 78 77 76 75 74 72 71 70 70 70 70 69 69 68 67 67 66 65 65 64 64 64 63 62 62 62 62 62 61 60 59 58 58 57 57 56 57
84 82 80 78 77 77 76 75 75 74 73 71 71 70 70 71 71 71 71 70 70 69 69 69 69 68 68 67 66 65 65 64 64 63 62 61 61 61 61 61 61 61
83 81 80 79 77 77 76 76 75 74 73 72 72 71 71 71 71 71 72 72 72 71 72 72 72 71 71 70 69 69 68 67 66 65 65 64 64 65 65 65 66 67
80 80 79 79 78 77 77 76 75 74 74 73 72 72 72 72 72 72 72 72 72 72 73 73 73 73 72 71 71 71 70 70 69 68 68 68 68 68 68 69 69 70
74 75 76 77 77 76 76 75 75 74 74 73 73 73 73 73 73 73 73 73 73 74 74 74 75 74 74 73 73 72 72 72 71 71 70 70 70 71 71 71 71 71
67 69 71 72 72 72 73 73 73 73 73 73 73 73 73 74 74 74 73 74 74 75 76 76 76 76 76 75 75 74 74 74 73 73 72 72 73 73 73 73 73 73
65 66 68 68 68 68 68 68 68 68 69 69 70 70 71 71 71 71 72 73 73 74 75 76 76 76 76 76 75 75 75 74 74 74 74 74 74 74 74 74 74 73
68 69 69 69 68 67 66 65 65 64 64 65 65 66 67 67 67 68 68 69 70 71 72 73 73 73 73 73 72 73 73 73 73 73 73 73 73 73 73 72 72 71
Wind_Direction
273 276 278 279 279 280 281 282 281 281 281 281 281 281 281 282 281 281 281 281 281 281 280 280 279 278 277 278 279 279 277 277 277 279 282 286 289 288 285 283 283 283
269 272 275 277 279 280 281 282 283 282 282 281 281 281 281 281 280 280 280 280 280 280 279 278 276 275 275 275 277 278 279 279 279 279 282 286 288 287 285 284 285 287
265 267 270 273 275 277 279 280 281 282 282 282 281 281 281 281 281 280 279 278 278 278 278 278 277 276 275 275 276 277 279 280 280 280 282 284 286 286 284 284 285 288
264 265 267 269 272 274 276 278 279 280 281 281 282 282 281 282 282 281 280 278 278 278 278 277 277 276 275 274 275 276 278 279 280 280 281 283 284 284 284 283 284 286
265 266 267 269 271 272 274 275 276 277 277 278 279 280 281 282 283 282 280 279 279 278 277 276 276 275 275 275 276 277 277 278 279 280 280 281 282 283 284 284 284 285
267 267 267 268 269 270 271 272 273 274 275 276 277 278 280 281 281 281 281 280 279 277 277 277 277 278 278 278 277 276 276 276 277 277 278 279 280 281 282 282 283 283
266 267 266 266 266 266 268 269 270 271 272 274 275 276 277 278 278 279 279 278 277 275 275 275 276 277 277 277 276 275 275 275 276 276 277 278 279 280 280 281 282 282
263 265 265 265 265 265 267 268 269 270 271 271 271 272 273 274 275 276 276 275 274 274 274 273 273 273 273 274 274 274 274 274 274 275 276 278 278 279 280 281 283 283
265 265 266 266 267 268 269 269 269 270 271 271 272 272 272 272 272 273 274 273 273 273 274 273 273 272 272 273 273 273 273 273 274 275 276 277 278 279 280 282 282 283
268 268 268 269 270 270 271 271 270 270 271 273 274 274 274 273 272 272 273 272 272 272 273 273 273 273 273 274 274 274 275 275 276 276 277 277 278 278 280 281 281 281
268 269 270 270 271 271 271 271 271 271 272 273 274 275 274 273 272 272 272 271 271 272 272 273 273 273 274 274 275 276 277 277 277 277 277 277 278 279 280 280 279 279
267 268 268 268 268 269 270 270 271 271 272 273 274 275 275 274 274 273 272 272 272 272 273 273 273 273 274 274 275 276 276 276 276 276 276 277 278 279 279 279 278 277
267 268 267 266 266 267 268 270 271 271 273 273 274 274 274 274 274 273 273 273 273 273 273 274 274 274 274 274 275 275 276 276 276 277 277 278 278 278 277 277 276 276
266 267 267 267 266 267 268 270 270 271 272 273 273 273 272 272 272 272 272 272 272 273 273 273 273 273 273 274 274 274 275 277 278 279 279 280 279 279 277 276 276 275
265 266 267 267 267 268 269 270 270 271 271 272 272 271 271 270 270 270 270 271 271 271 272 272 273 273 274 274 275 276 276 277 279 280 280 281 281 282 282 282 280 277
264 265 266 267 267 268 269 269 270 270 270 270 270 270 269 268 268 267 267 268 268 268 268 269 270 271 271 272 273 274 276 277 278 279 279 280 281 281 282 283 282 281
264 265 265 266 267 268 268 269 269 269 269 269 268 268 267 266 265 265 265 265 265 265 266 266 267 267 267 268 269 270 272 274 275 277 278 278 279 279 279 278 277 279
265 265 266 266 267 268 268 268 268 268 268 267 267 266 266 265 265 264 263 263 263 263 263 263 263 264 264 266 267 269 270 271 273 274 275 276 277 277 277 275 274 275
267 266 266 266 266 266 267 267 267 267 267 266 266 265 265 265 265 264 264 264 263 263 263 262 262 262 262 263 265 267 269 270 271 272 273 273 274 275 274 274 272 271
268 268 268 267 266 266 266 265 265 265 265 265 264 264 264 264 265 265 264 264 264 264 264 264 263 264 264 264 265 266 268 269 270 270 271 271 272 272 272 272 271 270
267 267 267 267 267 266 265 265 264 264 264 263 263 263 263 263 264 264 265 265 265 265 265 265 265 265 266 266 266 266 267 267 267 268 268 269 269 270 270 270 271 271
265 265 266 266 265 265 264 264 264 264 263 263 263 263 263 263 263 263 264 264 265 265 265 265 265 265 266 266 266 266 266 266 266 267 268 268 268 269 270 270 271 272
263 263 263 264 264 264 264 264 264 263 263 263 262 262 262 262 262 262 262 263 263 263 264 264 264 265 265 265 266 266 266 267 267 268 269 269 270 271 271 272 272 273
261 261 261 261 262 262 262 262 262 261 261 261 260 260 260 260 260 260 261 261 262 262 263 263 264 264 265 266 266 267 267 268 269 269 270 270 271 272 272 273 274 274
261 260 259 259 259 259 259 259 259 259 259 259 259 259 260 260 260 260 260 261 261 262 262 263 264 265 266 267 267 268 268 269 269 269 270 270 271 271 272 273 273 274
263 262 262 261 260 260 259 259 258 258 257 257 258 259 259 260 260 260 261 261 261 262 263 263 264 265 266 266 267 267 268 268 268 269 269 270 270 271 271 272 272 273
Height
10580 10579 10579 10579 10579 10580 10580 10581 10584 10587 10588 10588 10587 10588 10589 10590 10591 10592 10592 10593 10593 10594 10594 10594 10595 10595 10595 10595 10595 10595 10596 10596 10596 10596 10597 10597 10598 10598 10598 10598 10598 10599
10576 10576 10576 10575 10575 10575 10576 10576 10577 10579 10581 10582 10582 10582 10583 10584 10585 10586 10587 10588 10588 10589 10590 10590 10590 10590 10590 10591 10591 10591 10591 10591 10592 10592 10592 10593 10594 10594 10594 10595 10595 10595
10573 10573 10573 10572 10572 10572 10572 10572 10572 10573 10574 10575 10576 10576 10577 10577 10578 10580 10581 10582 10583 10584 10585 10585 10585 10585 10585 10585 10586 10586 10587 10587 10587 10587 10588 10588 10589 10590 10590 10590 10590 10591
10568 10569 10570 10569 10569 10568 10568 10568 10568 10568 10569 10569 10569 10569 10569 10570 10572 10572 10573 10574 10576 10578 10578 10578 10578 10579 10579 10579 10580 10580 10581 10581 10582 10582 10583 10583 10584 10585 10585 10586 10586 10586
10563 10564 10564 10565 10564 10564 10563 10563 10563 10563 10563 10563 10563 10563 10563 10563 10564 10565 10566 10568 10570 10570 10571 10571 10571 10571 10572 10573 10574 10574 10575 10576 10576 10577 10577 10578 10579 10579 10580 10580 10581 10581
10557 10558 10559 10559 10560 10559 10558 10557 10557 10557 10557 10557 10557 10558 10558 10557 10557 10558 10560 10562 10563 10563 10563 10563 10564 10565 10566 10567 10568 10568 10569 10569 10570 10571 10572 10573 10574 10574 10575 10575 10575 10576
10551 10552 10553 10554 10554 10554 10552 10551 10551 10551 10551 10551 10552 10553 10553 10551 10551 10552 10554 10555 10556 10556 10556 10556 10557 10559 10559 10560 10561 10561 10562 10562 10564 10565 10566 10567 10568 10568 10569 10569 10569 10570
10545 10546 10547 10547 10547 10547 10547 10545 10544 10544 10545 10545 10546 10547 10547 10546 10546 10546 10547 10548 10548 10548 10548 10550 10551 10552 10553 10553 10554 10554 10554 10555 10557 10558 10559 10560 10561 10561 10562 10562 10563 10563
10539 10540 10540 10540 10541 10541 10540 10539 10538 10537 10537 10538 10539 10540 10541 10541 10540 10539 10540 10541 10540 10540 10541 10542 10544 10546 10546 10546 10546 10547 10547 10549 10550 10552 10553 10553 10553 10554 10554 10555 10555 10555
10532 10533 10534 10534 10533 10532 10532 10531 10531 10531 10531 10531 10532 10533 10533 10533 10533 10533 10533 10534 10533 10532 10532 10534 10536 10538 10538 10538 10538 10539 10540 10542 10544 10545 10545 10546 10546 10546 10547 10547 10547 10547
10525 10527 10529 10528 10525 10523 10523 10523 10523 10524 10525 10525 10525 10525 10525 10525 10525 10526 10526 10526 10525 10524 10524 10526 10528 10529 10529 10530 10530 10531 10532 10534 10536 10537 10537 10537 10538 10539 10539 10539 10539 10540
10518 10521 10523 10521 10517 10515 10515 10515 10516 10517 10518 10518 10518 10517 10517 10516 10517 10517 10518 10518 10517 10517 10517 10518 10520 10521 10521 10521 10522 10523 10524 10525 10527 10528 10529 10530 10530 10531 10531 10531 10531 10532
10510 10512 10514 10514 10512 10509 10508 10509 10510 10510 10511 10511 10511 10510 10510 10509 10509 10509 10509 10509 10510 10510 10509 10510 10511 10513 10513 10513 10514 10515 10515 10516 10518 10519 10520 10521 10522 10523 10523 10523 10524 10524
10502 10503 10504 10505 10505 10503 10502 10502 10503 10503 10503 10503 10503 10503 10502 10502 10502 10502 10501 10502 10503 10503 10502 10503 10504 10504 10505 10506 10506 10507 10507 10507 10509 10510 10511 10512 10513 10514 10514 10516 10517 10516
10495 10495 10495 10495 10495 10495 10495 10495 10495 10495 10496 10495 10495 10495 10495 10495 10495 10495 10495 10495 10496 10496 10496 10496 10496 10497 10497 10497 10498 10499 10499 10500 10501 10502 10503 10503 10504 10504 10504 10505 10506 10505
10488 10488 10488 10487 10486 10486 10487 10487 10486 10487 10488 10488 10488 10487 10487 10488 10488 10488 10488 10488 10489 10490 10491 10490 10490 10490 10490 10491 10491 10491 10491 10492 10493 10494 10495 10495 10496 10496 10496 10497 10494 10492
10480 10480 10480 10479 10478 10478 10478 10479 10479 10479 10479 10480 10480 10479 10479 10480 10481 10481 10481 10481 10482 10483 10484 10484 10484 10484 10484 10484 10484 10485 10485 10485 10485 10486 10487 10487 10488 10488 10489 10490 10487 10484
10471 10472 10472 10472 10471 10470 10470 10470 10471 10471 10471 10472 10472 10472 10472 10472 10473 10474 10474 10474 10475 10475 10476 10476 10477 10477 10477 10477 10477 10477 10478 10478 10478 10479 10479 10480 10480 10480 10480 10482 10481 10480
10460 10462 10463 10463 10463 10462 10461 10461 10462 10463 10463 10464 10464 10464 10464 10464 10465 10465 10466 10466 10466 10467 10467 10468 10468 10468 10469 10469 10470 10470 10470 10470 10471 10471 10472 10472 10472 10472 10472 10473 10474 10474
10448 10450 10451 10452 10453 10453 10452 10452 10453 10453 10454 10456 10456 10456 10456 10456 10456 10456 10457 10458 10458 10458 10459 10459 10459 10460 10460 10461 10462 10462 10462 10462 10462 10463 10463 10464 10464 10464 10464 10464 10465 10465
10436 10438 10439 10440 10441 10441 10442 10442 10442 10443 10445 10446 10447 10447 10448 10447 10447 10447 10448 10448 10449 10449 10449 10449 10449 10450 10451 10452 10453 10454 10454 10454 10454 10454 10455 10455 10456 10456 10456 10456 10456 10456
10426 10427 10427 10428 10429 10430 10430 10431 10432 10433 10434 10436 10437 10437 10437 10437 10437 10437 10438 10438 10439 10439 10439 10439 10439 10440 10441 10442 10443 10444 10444 10445 10445 10446 10446 10446 10447 10447 10447 10447 10447 10447
10417 10417 10417 10417 10418 10418 10419 10420 10422 10423 10424 10425 10426 10426 10426 10426 10427 10427 10428 10428 10428 10428 10428 10428 10429 10430 10431 10432 10432 10433 10434 10434 10435 10435 10436 10436 10436 10436 10436 10437 10437 10437
10409 10408 10407 10407 10408 10409 10409 10410 10411 10412 10413 10414 10415 10415 10416 10416 10417 10418 10418 10419 10418 10418 10418 10418 10418 10419 10420 10421 10422 10423 10423 10424 10424 10425 10425 10426 10426 10426 10426 10426 10426 10426
10397 10397 10396 10397 10398 10399 10400 10401 10402 10403 10404 10404 10405 10406 10407 10407 10408 10409 10409 10409 10409 10409 10409 10409 10408 10409 10410 10411 10412 10412 10412 10413 10414 10415 10415 10416 10415 10415 10415 10416 10416 10416
10385 10385 10385 10386 10387 10389 10390 10392 10393 10394 10395 10396 10396 10397 10398 10398 10399 10400 10400 10400 10400 10400 10400 10400 10400 10400 10401 10402 10402 10402 10403 10403 10404 10405 10405 10406 10406 10406 10406 10406 10406 10406